Location: Blanot
(47.1713°N, 4.2340°E)
Time: 07:40:07
(UTC+00:00)

ADEOS II - Pass Details

Date: 14 July 2020
Orbit: 799 x 801 km, 98.5° (Epoch: 14 August)

Event Time Altitude Azimuth Distance (km) Brightness Sun altitude
Rises 01:17:30 0° 23° (NNE) 3,322 7.0 -18.4°
Reaches altitude 10° 01:20:08 10° 34° (NNE) 2,386 5.8 -18.2°
Maximum altitude 01:24:44 30° 95° (E) 1,405 3.5 -17.9°
Enters shadow 01:28:38 13° 151° (SSE) 2,147 4.0 -17.6°
